User: anonymous   Login
Location: Namasale
(1.5000°N, 32.6167°E)
Time: 05:53:09
(UTC+00:00)
Language:

deb Explorer IX - Orbit

View from above orbital plane
View from above orbital plane
View from above satellite
View from above satellite

Ground track
Ground track

The orbit data is extracted from the following two-line orbital elements,

1    85U 61004C   21102.86172291 -.00001154  00000-0 -21684-3 0  9993
2    85  38.7787 292.2746 0389262 335.6020  22.6735 14.21637278973685
Epoch (UTC): 12 April 2021 20:40:52
Eccentricity: 0.0389262
inclination: 38.7787°
perigee height: 539 km
apogee height: 1100 km
right ascension of ascending node: 292.2746°
argument of perigee: 335.6020°
revolutions per day: 14.21637278
mean anomaly at epoch: 22.6735°
orbit number at epoch: 97368

The dashed part of the orbit path shows where the satellite is in the earth's shadow,  

DLR